N2933A 67FL-KLAL

Flight info

Callsign N2933A
Flight time 0h 33m
Altitude 3500
Route 67FL VPMNO VPFSY VPTCK VPKER KLAL
Aircraft PA28/L-VGD/A

Departure

Time 2026-04-26 22:14
Airport Bald Eagle Airstrip (67FL)

Arrival

Time 2026-04-26 22:48
Airport Lakeland Linder International Airport (KLAL)
Time Latitude Longitude Altitude Speed Heading
2026-04-26 22:14 27.44683 -82.10894 465 ft 81 kts 249°
2026-04-26 22:14 27.44704 -82.11476 760 ft 74 kts 303°
2026-04-26 22:15 27.45163 -82.11690 988 ft 75 kts
2026-04-26 22:15 27.45703 -82.11519 1127 ft 88 kts 19°
2026-04-26 22:15 27.46279 -82.11254 1300 ft 95 kts 30°
2026-04-26 22:15 27.46883 -82.10864 1433 ft 102 kts 27°
2026-04-26 22:16 27.47596 -82.10724 1567 ft 105 kts 12°
2026-04-26 22:16 27.48312 -82.10565 1722 ft 105 kts
2026-04-26 22:16 27.49029 -82.10406 1887 ft 105 kts 11°
2026-04-26 22:16 27.49746 -82.10241 2051 ft 105 kts 11°
2026-04-26 22:17 27.50462 -82.10073 2207 ft 105 kts 11°
2026-04-26 22:17 27.51178 -82.09906 2378 ft 105 kts 11°
2026-04-26 22:17 27.51894 -82.09740 2545 ft 105 kts 11°
2026-04-26 22:17 27.52607 -82.09573 2689 ft 105 kts 11°
2026-04-26 22:18 27.53937 -82.08706 2985 ft 106 kts 37°
2026-04-26 22:18 27.55765 -82.07114 3440 ft 102 kts 36°
2026-04-26 22:18 27.56352 -82.06608 3480 ft 112 kts 37°
2026-04-26 22:18 27.56970 -82.06038 3497 ft 118 kts 39°
2026-04-26 22:19 27.57621 -82.05439 3500 ft 123 kts 39°
2026-04-26 22:19 27.58292 -82.04818 3497 ft 126 kts 39°
2026-04-26 22:19 27.58971 -82.04191 3499 ft 127 kts 39°
2026-04-26 22:19 27.59656 -82.03557 3498 ft 128 kts 39°
2026-04-26 22:20 27.60342 -82.02925 3501 ft 127 kts 39°
2026-04-26 22:20 27.60785 -82.02515 3500 ft 127 kts 39°
2026-04-26 22:20 27.61459 -82.01880 3408 ft 128 kts 35°
2026-04-26 22:20 27.62090 -82.01172 3413 ft 128 kts 38°
2026-04-26 22:21 27.64609 -81.98298 3421 ft 127 kts 39°
2026-04-26 22:21 27.67043 -81.95576 3426 ft 122 kts 39°
2026-04-26 22:21 27.69877 -81.93648 3422 ft 120 kts 23°
2026-04-26 22:21 27.72834 -81.91773 3423 ft 122 kts 24°
2026-04-26 22:22 27.75777 -81.89909 3419 ft 120 kts 23°
2026-04-26 22:22 27.77282 -81.88922 3419 ft 119 kts 23°
2026-04-26 22:22 27.77997 -81.88435 3421 ft 121 kts 22°
2026-04-26 22:22 27.78714 -81.87970 3413 ft 117 kts 23°
2026-04-26 22:23 27.79415 -81.87506 3412 ft 117 kts 23°
2026-04-26 22:23 27.80107 -81.87051 3410 ft 114 kts 22°
2026-04-26 22:23 27.80839 -81.86889 3415 ft 106 kts 359°
2026-04-26 22:23 27.81555 -81.86937 3410 ft 101 kts 338°
2026-04-26 22:24 27.82242 -81.87126 3417 ft 104 kts 347°
2026-04-26 22:24 27.82953 -81.87271 3422 ft 105 kts 339°
2026-04-26 22:24 27.83668 -81.87476 3421 ft 106 kts 342°
2026-04-26 22:24 27.84388 -81.87624 3415 ft 108 kts 351°
2026-04-26 22:25 27.85101 -81.87214 3419 ft 121 kts 30°
2026-04-26 22:25 27.85826 -81.86721 3425 ft 123 kts 22°
2026-04-26 22:25 27.86547 -81.86205 3425 ft 123 kts 24°
2026-04-26 22:25 27.87260 -81.85679 3428 ft 122 kts 27°
2026-04-26 22:26 27.87978 -81.85168 3430 ft 122 kts 26°
2026-04-26 22:26 27.88695 -81.84673 3429 ft 121 kts 24°
2026-04-26 22:26 27.89416 -81.84175 3428 ft 122 kts 24°
2026-04-26 22:26 27.90127 -81.83655 3426 ft 121 kts 27°
2026-04-26 22:27 27.90843 -81.83149 3428 ft 123 kts 27°
2026-04-26 22:27 27.91572 -81.82639 3433 ft 123 kts 25°
2026-04-26 22:27 27.92298 -81.82124 3428 ft 123 kts 26°
2026-04-26 22:27 27.93008 -81.81595 3426 ft 121 kts 28°
2026-04-26 22:28 27.93761 -81.81156 3431 ft 123 kts 21°
2026-04-26 22:28 27.94531 -81.80702 3429 ft 125 kts 21°
2026-04-26 22:28 27.95308 -81.80253 3436 ft 124 kts 15°
2026-04-26 22:28 27.96080 -81.79943 3322 ft 109 kts 12°
2026-04-26 22:29 27.96808 -81.79639 3174 ft 113 kts 12°
2026-04-26 22:29 27.97544 -81.79358 3102 ft 110 kts 10°
2026-04-26 22:29 27.98274 -81.79054 2973 ft 114 kts 14°
2026-04-26 22:29 27.99022 -81.78681 2836 ft 119 kts 18°
2026-04-26 22:30 27.99792 -81.78292 2596 ft 124 kts 17°
2026-04-26 22:30 28.00587 -81.77922 2432 ft 124 kts 14°
2026-04-26 22:30 28.01381 -81.77578 2288 ft 123 kts 11°
2026-04-26 22:30 28.02182 -81.77245 2183 ft 120 kts 17°
2026-04-26 22:31 28.02917 -81.76840 2122 ft 117 kts 18°
2026-04-26 22:31 28.03655 -81.76435 2148 ft 117 kts 18°
2026-04-26 22:31 28.04412 -81.76009 2095 ft 123 kts 17°
2026-04-26 22:31 28.05176 -81.75559 2154 ft 125 kts 21°
2026-04-26 22:32 28.05944 -81.75084 2160 ft 128 kts 21°
2026-04-26 22:32 28.06753 -81.74620 2106 ft 132 kts 17°
2026-04-26 22:32 28.07569 -81.74166 2132 ft 130 kts 19°
2026-04-26 22:32 28.08410 -81.73876 2071 ft 127 kts
2026-04-26 22:33 28.09310 -81.73850 1842 ft 128 kts 351°
2026-04-26 22:33 28.11019 -81.73921 1711 ft 121 kts 348°
2026-04-26 22:33 28.11849 -81.73972 1752 ft 119 kts 349°
2026-04-26 22:34 28.12659 -81.74113 1698 ft 119 kts 339°
2026-04-26 22:34 28.13375 -81.74510 1772 ft 110 kts 317°
2026-04-26 22:34 28.13968 -81.75077 1718 ft 114 kts 314°
2026-04-26 22:34 28.14504 -81.75731 1693 ft 112 kts 304°
2026-04-26 22:35 28.14883 -81.76514 1615 ft 117 kts 291°
2026-04-26 22:35 28.15124 -81.77383 1487 ft 112 kts 283°
2026-04-26 22:35 28.15209 -81.78247 1327 ft 108 kts 270°
2026-04-26 22:35 28.15083 -81.79080 1136 ft 110 kts 258°
2026-04-26 22:36 28.14894 -81.79909 1116 ft 101 kts 255°
2026-04-26 22:36 28.14538 -81.80597 1039 ft 105 kts 240°
2026-04-26 22:36 28.14159 -81.81220 1164 ft 95 kts 235°
2026-04-26 22:36 28.13714 -81.81784 1143 ft 97 kts 232°
2026-04-26 22:37 28.13273 -81.82341 1212 ft 92 kts 233°
2026-04-26 22:37 28.12844 -81.82907 1235 ft 98 kts 235°
2026-04-26 22:37 28.12426 -81.83527 1173 ft 101 kts 241°
2026-04-26 22:37 28.12029 -81.84168 1127 ft 100 kts 239°
2026-04-26 22:38 28.11644 -81.84799 1150 ft 96 kts 240°
2026-04-26 22:38 28.11268 -81.85396 1147 ft 92 kts 239°
2026-04-26 22:38 28.10913 -81.85991 1078 ft 89 kts 242°
2026-04-26 22:38 28.10548 -81.86566 1091 ft 93 kts 241°
2026-04-26 22:39 28.10166 -81.87177 1106 ft 95 kts 241°
2026-04-26 22:39 28.09842 -81.87767 1134 ft 86 kts 242°
2026-04-26 22:39 28.09525 -81.88368 1107 ft 90 kts 245°
2026-04-26 22:39 28.09252 -81.88992 1143 ft 84 kts 258°
2026-04-26 22:40 28.09089 -81.89622 1117 ft 85 kts 258°
2026-04-26 22:40 28.08947 -81.90285 1039 ft 84 kts 261°
2026-04-26 22:40 28.08799 -81.90945 940 ft 90 kts 259°
2026-04-26 22:40 28.08643 -81.91656 898 ft 90 kts 262°
2026-04-26 22:41 28.08466 -81.92353 993 ft 93 kts 259°
2026-04-26 22:41 28.08265 -81.93018 1182 ft 89 kts 258°
2026-04-26 22:41 28.08070 -81.93695 1351 ft 90 kts 259°
2026-04-26 22:41 28.07881 -81.94409 1441 ft 98 kts 254°
2026-04-26 22:42 28.07632 -81.95152 1392 ft 104 kts 255°
2026-04-26 22:42 28.07471 -81.95656 1341 ft 97 kts 259°
2026-04-26 22:42 28.07296 -81.96406 1281 ft 100 kts 259°
2026-04-26 22:42 28.07055 -81.97157 1233 ft 102 kts 252°
2026-04-26 22:43 28.06640 -81.98110 1059 ft 97 kts 247°
2026-04-26 22:43 28.06328 -81.98744 1086 ft 91 kts 246°
2026-04-26 22:43 28.05988 -81.99337 1156 ft 89 kts 242°
2026-04-26 22:43 28.05623 -81.99899 1137 ft 88 kts 242°
2026-04-26 22:44 28.05333 -82.00257 1109 ft 96 kts 233°
2026-04-26 22:44 28.04765 -82.00703 1123 ft 105 kts 216°
2026-04-26 22:44 28.04119 -82.01131 1141 ft 106 kts 220°
2026-04-26 22:44 28.03440 -82.01451 1168 ft 108 kts 205°
2026-04-26 22:45 28.02674 -82.01547 1159 ft 112 kts 185°
2026-04-26 22:45 28.01880 -82.01577 1077 ft 117 kts 186°
2026-04-26 22:45 28.01087 -82.01578 915 ft 110 kts 192°
2026-04-26 22:45 28.00354 -82.01524 687 ft 107 kts 167°
2026-04-26 22:46 27.99920 -82.00983 569 ft 86 kts 94°
2026-04-26 22:46 27.99860 -82.00350 540 ft 78 kts 104°
2026-04-26 22:46 27.99512 -81.99881 539 ft 79 kts 160°
2026-04-26 22:46 27.99007 -81.99865 592 ft 72 kts 208°
2026-04-26 22:47 27.98866 -82.00293 428 ft 65 kts 285°
2026-04-26 22:47 27.98922 -82.00811 262 ft 64 kts 277°
2026-04-26 22:47 27.98925 -82.01284 156 ft 55 kts 274°
2026-04-26 22:47 27.98923 -82.01714 148 ft 53 kts 274°
2026-04-26 22:48 27.98929 -82.02066 136 ft 37 kts 281°
2026-04-26 22:48 27.98891 -82.02309 136 ft 20 kts 145°
2026-04-26 22:48 27.98817 -82.02383 133 ft 20 kts 268°
2026-04-26 22:48 27.98817 -82.02565 133 ft 26 kts 270°
2026-04-26 22:49 27.98761 -82.02718 129 ft 24 kts 178°
2026-04-26 22:49 27.98603 -82.02631 128 ft 27 kts 134°
2026-04-26 22:49 27.98518 -82.02454 132 ft 27 kts 103°